[[{"header":{"parameterUnit":"m.s-1","parameterCategory":2,"la1":30.2991,"la2":30.254,"lo1":-89.0895,"lo2":-89.0444,"dy":0.0017,"dx":0.0017,"nx":28,"ny":28,"refTime":"2023-08-24T09:00:00:Z","depth":"0","parameterNumber":2,"parameterNumberName":"U-component_of_CURRENTS"},"data":[0,0,0,0,0,0,0,0,0,0,0,0,0,0,0,0,0,0,0,0,0,0,0,0,0,0,0,0,0,0,0,0,0,0,0,0,0,0,0,0,0,0,0,0,0,0,0,0,0,0,0,0,0,0,0,0,0,0,-0.1279,-0.128,0,-0.1342,-0.1342,-0.1343,-0.1299,-0.1298,-0.1296,-0.1294,-0.1231,-0.1231,-0.1231,0,0,0,0,0,0,0,0,0,0,0,0,0,-0.1147,-0.1149,-0.1279,-0.128,-0.1281,-0.1342,-0.1342,-0.1343,-0.13,-0.1298,-0.1296,-0.1294,-0.1231,-0.1231,-0.1231,0,0,0,0,0,0,0,0,0,0,0,0,0,-0.1204,-0.115,-0.1279,-0.1269,-0.1268,-0.1342,-0.1343,-0.1343,-0.13,-0.1298,-0.1295,-0.1293,-0.1231,-0.1231,-0.1231,-0.1283,0,0,-0.123,-0.123,0,0,0,0,0,0,0,0,-0.1201,-0.1209,-0.1269,-0.1269,-0.1269,-0.1312,-0.1273,-0.1318,-0.1301,-0.1286,-0.1294,-0.1291,-0.125,-0.1248,-0.1264,-0.128,-0.1277,-0.123,-0.123,-0.123,-0.123,0,0,0,0,0,0,0,-0.1197,-0.1206,-0.1302,-0.127,-0.1271,-0.127,-0.1274,-0.1282,-0.1277,-0.1287,-0.1284,-0.1296,-0.1248,-0.1265,-0.1262,-0.1276,-0.123,-0.123,-0.123,-0.123,-0.1378,-0.1382,0,0,0,0,0,0,-0.1197,-0.1203,-0.13,-0.1304,-0.1231,-0.1274,-0.1279,-0.1299,-0.128,-0.1276,-0.1298,-0.1294,-0.1266,-0.1262,-0.1259,-0.1357,-0.123,-0.123,-0.123,-0.1374,-0.1379,-0.1383,0,0,0,0,0,0,-0.1194,-0.1205,-0.1297,-0.1255,-0.1267,-0.1279,-0.1302,-0.1302,-0.1305,-0.1291,-0.1283,-0.1299,-0.1264,-0.126,-0.1285,-0.1352,-0.123,-0.123,-0.1369,-0.1375,-0.1381,-0.1528,0,0,0,0,0,0,-0.119,-0.1204,-0.1218,-0.1256,-0.127,-0.1342,-0.1305,-0.1305,-0.1318,-0.1313,-0.129,-0.1282,-0.1261,-0.1286,-0.1285,-0.135,-0.123,-0.1364,-0.1372,-0.1379,-0.1518,-0.1538,-0.1555,0,0,0,0,0,-0.1185,-0.1209,-0.1218,-0.123,-0.1289,-0.1344,-0.1351,-0.1348,-0.1321,-0.1337,-0.1334,-0.1282,-0.1333,-0.1289,-0.1287,-0.1353,-0.136,-0.137,-0.1378,-0.1509,-0.1534,-0.1555,0,0,0,0,0,0,-0.1154,-0.1209,-0.1219,-0.1258,-0.1301,-0.1337,-0.1344,-0.1353,-0.1366,-0.1349,-0.1324,-0.132,-0.1373,-0.1348,-0.13,-0.1423,-0.1342,-0.1351,-0.1443,-0.1466,-0.1484,-0.1494,-0.123,0,0,0,0,0,-0.116,-0.1188,-0.1247,-0.1275,-0.1292,-0.1321,-0.134,-0.135,-0.1369,-0.137,-0.1364,-0.1371,-0.1417,-0.1422,-0.1441,-0.1498,-0.1459,-0.1545,-0.1564,-0.158,-0.1591,-0.1651,-0.1675,-0.1412,-0.1412,-0.1412,0,0,-0.1152,-0.1188,-0.1202,-0.127,-0.129,-0.1345,-0.1323,-0.1356,-0.1417,-0.1362,-0.1416,-0.1428,-0.1447,-0.1523,-0.1545,-0.1503,-0.162,-0.1591,-0.1604,-0.1607,-0.1663,-0.1688,-0.171,-0.1418,-0.1417,-0.1416,0,0,-0.1155,-0.1184,-0.1211,-0.1254,-0.1306,-0.1347,-0.1359,-0.1407,-0.1438,-0.1504,-0.1503,-0.1568,-0.1587,-0.1654,-0.1684,-0.182,-0.1719,-0.1809,-0.1909,-0.1968,-0.1989,-0.2008,-0.1922,-0.1932,-0.1817,-0.1818,-0.1818,0,-0.1144,-0.119,-0.1228,-0.1271,-0.1308,-0.1351,-0.14,-0.1464,-0.1521,-0.1582,-0.1528,-0.1666,-0.1671,-0.1827,-0.1873,-0.1866,-0.1815,-0.1818,-0.1991,-0.2009,-0.2025,-0.1933,-0.1942,-0.1826,-0.1825,-0.1824,-0.1823,0,-0.1171,-0.1213,-0.1227,-0.1307,-0.1365,-0.1404,-0.1505,-0.1581,-0.1616,-0.1686,-0.182,-0.1855,-0.1936,-0.1968,-0.1954,-0.2105,-0.1997,-0.2005,-0.1927,-0.2061,-0.1954,-0.1961,-0.1838,-0.1835,-0.1832,-0.183,0,0,-0.1131,-0.1228,-0.1232,-0.1273,-0.1381,-0.1432,-0.1573,-0.1722,-0.1826,-0.1899,-0.2024,-0.2146,-0.2156,-0.2192,-0.2207,-0.2265,-0.2321,-0.2176,-0.2175,-0.2075,-0.2329,-0.2203,-0.2196,-0.2348,-0.2352,-0.2355,-0.218,0,-0.1134,-0.1206,-0.1273,-0.1362,-0.1407,-0.1523,-0.1655,-0.1806,-0.192,-0.2055,-0.2165,-0.2261,-0.2248,-0.2273,-0.2352,-0.2335,-0.2356,-0.2359,-0.2227,-0.2221,-0.2086,-0.221,-0.2098,-0.1932,-0.2186,-0.2187,-0.2187,0,-0.1133,-0.1187,-0.1256,-0.1401,-0.1433,-0.1508,-0.1728,-0.185,-0.2088,-0.2176,-0.2326,-0.2379,-0.2506,-0.2451,-0.2506,-0.2493,-0.2421,-0.2391,-0.2384,-0.2228,-0.2114,-0.1857,-0.1933,-0.1918,-0.2196,-0.2196,-0.2195,0,-0.106,-0.1179,-0.1228,-0.1267,-0.1443,-0.1521,-0.163,-0.1873,-0.1998,-0.2228,-0.2311,-0.2485,-0.2513,-0.254,-0.2473,-0.2485,-0.246,-0.2473,-0.2285,-0.2268,-0.213,-0.2097,-0.2174,-0.2507,-0.2507,-0.2507,-0.2508,0,-0.1028,-0.107,-0.1188,-0.1207,-0.1304,-0.1453,-0.1598,-0.1763,-0.1991,-0.2131,-0.2324,-0.2424,-0.2538,-0.2543,-0.2492,-0.2379,-0.247,-0.2311,-0.2258,-0.2168,-0.2142,-0.2085,-0.2108,-0.2501,-0.2502,-0.2503,-0.2505,0,-0.093,-0.1004,-0.1056,-0.1206,-0.1253,-0.131,-0.1515,-0.1641,-0.1863,-0.2042,-0.21,-0.235,-0.2359,-0.2395,-0.2389,-0.2354,-0.2234,-0.2208,-0.2019,-0.1952,-0.1809,-0.1842,-0.1832,-0.1783,-0.201,-0.2007,-0.2004,0,-0.0889,-0.0897,-0.0995,-0.1018,-0.1067,-0.118,-0.1277,-0.153,-0.1663,-0.1975,-0.2036,-0.2146,-0.2201,-0.2139,-0.2108,-0.1991,-0.2027,-0.1821,-0.1893,-0.1803,-0.1802,-0.1843,-0.1807,-0.1714,-0.1709,-0.1705,-0.1701,0,-0.0796,-0.0808,-0.084,-0.0878,-0.0936,-0.1035,-0.1177,-0.1268,-0.157,-0.1729,-0.1899,-0.1963,-0.1964,-0.1871,-0.1759,-0.1694,-0.1795,-0.1731,-0.1745,-0.168,-0.1627,-0.1548,-0.1725,-0.1665,-0.1668,-0.1671,-0.1673,-0.1675,-0.0701,-0.0681,-0.0703,-0.0734,-0.0803,-0.0877,-0.0909,-0.1085,-0.1245,-0.1446,-0.162,-0.1647,-0.1682,-0.1547,-0.1484,-0.1378,-0.1483,-0.1355,-0.1414,-0.1469,-0.1436,-0.1466,-0.1306,-0.1307,-0.1308,-0.131,-0.1311,0,-0.0598,-0.0578,-0.0581,-0.0608,-0.0635,-0.0721,-0.0845,-0.0871,-0.0968,-0.1118,-0.1225,-0.1253,-0.1196,-0.1213,-0.1169,-0.1104,-0.1119,-0.1086,-0.1161,-0.115,-0.1248,-0.1252,-0.0945,-0.0945,-0.0945,-0.0945,-0.0945,-0.0945,-0.054,-0.0487,-0.0479,-0.0444,-0.047,-0.0475,-0.0507,-0.0545,-0.061,-0.0647,-0.0668,-0.0715,-0.0861,-0.1095,-0.1064,-0.1006,-0.1023,-0.0959,-0.1026,-0.1135,-0.1167,-0.1198,-0.1211,-0.09,-0.09,-0.0871,-0.0871,-0.0871]},{"header":{"parameterUnit":"m.s-1","parameterCategory":2,"la1":30.2991,"la2":30.254,"lo1":-89.0895,"lo2":-89.0444,"dy":0.0017,"dx":0.0017,"nx":28,"ny":28,"refTime":"2023-08-24T09:00:00:Z","depth":"0","parameterNumber":3,"parameterNumberName":"V-component_of_CURRENTS"},"data":[0,0,0,0,0,0,0,0,0,0,0,0,0,0,0,0,0,0,0,0,0,0,0,0,0,0,0,0,0,0,0,0,0,0,0,0,0,0,0,0,0,0,0,0,0,0,0,0,0,0,0,0,0,0,0,0,0,0,-0.0531,-0.053,0,-0.0417,-0.0416,-0.0415,-0.0331,-0.0331,-0.033,-0.033,-0.0186,-0.0183,-0.018,0,0,0,0,0,0,0,0,0,0,0,0,0,-0.0682,-0.068,-0.0531,-0.053,-0.0529,-0.0418,-0.0416,-0.0414,-0.0331,-0.0331,-0.033,-0.0329,-0.0187,-0.0184,-0.018,0,0,0,0,0,0,0,0,0,0,0,0,0,-0.0596,-0.0679,-0.0531,-0.0475,-0.0469,-0.0418,-0.0416,-0.0414,-0.0332,-0.0331,-0.033,-0.0329,-0.0189,-0.0184,-0.0179,-0.0166,0,0,-0.0164,-0.0162,0,0,0,0,0,0,0,0,-0.0601,-0.0591,-0.0485,-0.0479,-0.0472,-0.0389,-0.0417,-0.033,-0.0332,-0.0382,-0.033,-0.0329,-0.0253,-0.0243,-0.0222,-0.016,-0.0154,-0.0164,-0.0161,-0.0159,-0.0157,0,0,0,0,0,0,0,-0.0607,-0.0595,-0.0485,-0.0483,-0.0476,-0.0457,-0.0444,-0.04,-0.0322,-0.0378,-0.0372,-0.0362,-0.0249,-0.0227,-0.0218,-0.0151,-0.0164,-0.0159,-0.0156,-0.0154,-0.0041,-0.0041,0,0,0,0,0,0,-0.0624,-0.0601,-0.0488,-0.0482,-0.0537,-0.0455,-0.044,-0.0415,-0.0323,-0.0309,-0.0362,-0.0358,-0.0235,-0.0223,-0.0212,-0.0191,-0.0159,-0.0154,-0.0151,-0.0041,-0.0041,-0.0041,0,0,0,0,0,0,-0.0628,-0.0615,-0.0493,-0.0541,-0.0524,-0.0454,-0.0426,-0.0414,-0.0387,-0.0312,-0.0297,-0.0349,-0.0234,-0.0219,-0.0179,-0.0185,-0.0152,-0.0147,-0.0041,-0.0041,-0.0041,-0.0149,0,0,0,0,0,0,-0.0632,-0.0616,-0.0609,-0.0541,-0.0522,-0.048,-0.0427,-0.0412,-0.0383,-0.0376,-0.0296,-0.0282,-0.0232,-0.0187,-0.0174,-0.0178,-0.0143,-0.0041,-0.0041,-0.0041,-0.0146,-0.0153,-0.0159,0,0,0,0,0,-0.0638,-0.0642,-0.0609,-0.0596,-0.0512,-0.0482,-0.0471,-0.0417,-0.0384,-0.0387,-0.0326,-0.0284,-0.0176,-0.0183,-0.0168,-0.017,-0.0041,-0.0041,-0.0041,-0.0143,-0.0151,-0.0159,0,0,0,0,0,0,-0.0702,-0.0631,-0.0595,-0.0574,-0.0537,-0.0469,-0.0466,-0.0424,-0.0377,-0.0367,-0.0289,-0.0272,-0.0236,-0.0188,-0.0198,-0.0134,-0.0099,-0.0096,-0.0181,-0.0189,-0.0195,-0.0211,-0.0139,0,0,0,0,0,-0.0713,-0.0696,-0.0629,-0.0614,-0.0598,-0.0531,-0.0511,-0.0474,-0.0423,-0.04,-0.0343,-0.0278,-0.0224,-0.0197,-0.0145,-0.0118,-0.0044,-0.0105,-0.0112,-0.0118,-0.0119,-0.0004,0.0,-0.004,-0.004,-0.004,0,0,-0.0734,-0.0693,-0.0682,-0.0627,-0.059,-0.0589,-0.0517,-0.0497,-0.0492,-0.0393,-0.0373,-0.0303,-0.0221,-0.0188,-0.0167,-0.015,-0.0071,-0.0118,-0.0124,-0.0121,-0.0003,0.0001,0.0005,-0.004,-0.004,-0.004,0,0,-0.0785,-0.0731,-0.0741,-0.0715,-0.067,-0.0636,-0.0635,-0.0572,-0.054,-0.0511,-0.0431,-0.0362,-0.0297,-0.0228,-0.0186,-0.0195,-0.011,-0.0183,-0.023,-0.0119,-0.0114,-0.011,-0.003,-0.0017,-0.0187,-0.0187,-0.0187,0,-0.0812,-0.0802,-0.0744,-0.0751,-0.0742,-0.0665,-0.0686,-0.0648,-0.0581,-0.0558,-0.0524,-0.0375,-0.0311,-0.0236,-0.0243,-0.021,-0.0145,-0.0213,-0.0128,-0.0122,-0.0115,-0.0033,-0.0018,-0.0192,-0.0192,-0.0191,-0.0191,0,-0.0872,-0.0862,-0.087,-0.0851,-0.0846,-0.0845,-0.0795,-0.0782,-0.0732,-0.0677,-0.0592,-0.0474,-0.0382,-0.0348,-0.0304,-0.0224,-0.0194,-0.0152,-0.0114,-0.0117,-0.0031,-0.0013,-0.02,-0.0198,-0.0196,-0.0195,0,0,-0.0917,-0.0913,-0.0912,-0.0922,-0.0893,-0.0895,-0.0906,-0.088,-0.0869,-0.0772,-0.0717,-0.0603,-0.0508,-0.0451,-0.0352,-0.0257,-0.0162,-0.0201,-0.0192,-0.0133,0.0064,0.0023,0.004,-0.0106,-0.0103,-0.0101,0.0097,0,-0.0972,-0.1017,-0.1003,-0.1049,-0.1063,-0.1022,-0.104,-0.1009,-0.095,-0.0881,-0.072,-0.0624,-0.0553,-0.0482,-0.038,-0.0184,-0.0116,-0.0221,0.0069,0.0077,0.0034,0.0059,0.0096,0.027,0.0115,0.0118,0.0121,0,-0.1023,-0.1045,-0.1107,-0.1135,-0.1141,-0.1167,-0.1173,-0.1171,-0.1072,-0.101,-0.0878,-0.0739,-0.0548,-0.0493,-0.0184,-0.0252,-0.013,0.0005,0.0017,0.0031,0.0071,0.0256,0.031,0.0441,0.015,0.0147,0.0145,0,-0.1072,-0.1112,-0.1169,-0.1174,-0.1201,-0.1232,-0.1248,-0.1209,-0.1197,-0.1058,-0.099,-0.0769,-0.0578,-0.0396,-0.0127,-0.0145,0.0202,0.0222,0.0287,0.0286,0.0401,0.0403,0.061,0.0378,0.0377,0.0377,0.0376,0,-0.1115,-0.115,-0.1196,-0.1218,-0.1283,-0.129,-0.1337,-0.1311,-0.1255,-0.1203,-0.1034,-0.0875,-0.0538,-0.0299,-0.0128,0.0153,0.0208,0.0285,0.0341,0.0359,0.0355,0.0541,0.059,0.0384,0.0382,0.0381,0.038,0,-0.1129,-0.1165,-0.1217,-0.1275,-0.13,-0.1338,-0.1394,-0.1415,-0.1349,-0.1258,-0.1199,-0.0887,-0.0554,-0.0291,0.0082,0.0195,0.051,0.0476,0.0451,0.0498,0.0639,0.0679,0.0924,0.1009,0.0595,0.0595,0.0595,0,-0.1133,-0.1165,-0.1244,-0.1283,-0.1306,-0.1376,-0.1429,-0.1444,-0.1451,-0.1244,-0.1176,-0.0833,-0.0547,-0.0045,0.0214,0.0485,0.0572,0.0622,0.0575,0.0653,0.0744,0.0755,0.081,0.0699,0.07,0.0701,0.0702,0,-0.1118,-0.1148,-0.1187,-0.1275,-0.1345,-0.1426,-0.1489,-0.1517,-0.149,-0.1404,-0.1141,-0.0881,-0.0361,0.0064,0.0378,0.0518,0.0712,0.0641,0.0783,0.0876,0.0855,0.0961,0.0533,0.0709,0.0708,0.0708,0.0707,0.0707,-0.1081,-0.1105,-0.1169,-0.1249,-0.1328,-0.1421,-0.1481,-0.1545,-0.1543,-0.1399,-0.1098,-0.0683,-0.0077,0.0427,0.0573,0.0835,0.0796,0.0915,0.097,0.0983,0.1021,0.0556,0.074,0.074,0.0739,0.0739,0.0739,0,-0.1028,-0.1075,-0.1145,-0.1238,-0.1307,-0.1372,-0.1479,-0.1529,-0.153,-0.1366,-0.1101,-0.0281,0.0218,0.0658,0.1055,0.1187,0.1232,0.1245,0.1327,0.1378,0.1052,0.1008,0.1187,0.1187,0.1187,0.1187,0.1186,0.1186,-0.1002,-0.1047,-0.11,-0.1187,-0.125,-0.1336,-0.139,-0.147,-0.1411,-0.1098,-0.0665,-0.0255,0.0541,0.1188,0.1534,0.1546,0.1707,0.1652,0.1738,0.1553,0.1528,0.1503,0.1476,0.175,0.1751,0.2068,0.2071,0.2074]}],[{"header":{"parameterUnit":"m.s-1","parameterCategory":2,"la1":30.2991,"la2":30.254,"lo1":-89.0895,"lo2":-89.0444,"dy":0.0017,"dx":0.0017,"nx":28,"ny":28,"refTime":"2023-08-24T09:00:00:Z","depth":"2","parameterNumber":2,"parameterNumberName":"U-component_of_CURRENTS"},"data":[0,0,0,0,0,0,0,0,0,0,0,0,0,0,0,0,0,0,0,0,0,0,0,0,0,0,0,0,0,0,0,0,0,0,0,0,0,0,0,0,0,0,0,0,0,0,0,0,0,0,0,0,0,0,0,0,0,0,-0.2908,-0.2907,0,-0.2842,-0.2841,-0.284,-0.2775,-0.2774,-0.2774,-0.2773,-0.2677,-0.2675,-0.2673,0,0,0,0,0,0,0,0,0,0,0,0,0,-0.2925,-0.2925,-0.2908,-0.2907,-0.2906,-0.2842,-0.2841,-0.284,-0.2775,-0.2774,-0.2773,-0.2773,-0.2678,-0.2675,-0.2673,0,0,0,0,0,0,0,0,0,0,0,0,0,-0.2893,-0.2925,-0.2908,-0.2868,-0.2864,-0.2843,-0.2841,-0.284,-0.2775,-0.2774,-0.2773,-0.2772,-0.2678,-0.2675,-0.2673,-0.2675,0,0,-0.2664,-0.2662,0,0,0,0,0,0,0,0,-0.2895,-0.2892,-0.2874,-0.2871,-0.2866,-0.2818,-0.2812,-0.2784,-0.2776,-0.2807,-0.2773,-0.2772,-0.2723,-0.2717,-0.2704,-0.267,-0.2666,-0.2663,-0.2662,-0.266,-0.266,0,0,0,0,0,0,0,-0.2897,-0.2894,-0.2879,-0.2874,-0.2869,-0.2836,-0.283,-0.2806,-0.2769,-0.2804,-0.2799,-0.2796,-0.272,-0.2707,-0.2701,-0.2665,-0.2664,-0.2661,-0.2659,-0.2658,-0.2591,-0.2591,0,0,0,0,0,0,-0.2913,-0.2897,-0.2882,-0.2878,-0.2881,-0.2837,-0.283,-0.2832,-0.277,-0.276,-0.2797,-0.2793,-0.2712,-0.2705,-0.2697,-0.2689,-0.266,-0.2658,-0.2656,-0.2591,-0.2591,-0.2591,0,0,0,0,0,0,-0.2914,-0.2913,-0.2884,-0.2887,-0.2881,-0.2838,-0.284,-0.2832,-0.2814,-0.2765,-0.2754,-0.2788,-0.2711,-0.2702,-0.267,-0.2685,-0.2656,-0.2654,-0.2591,-0.2591,-0.2591,-0.2676,0,0,0,0,0,0,-0.2915,-0.2914,-0.2926,-0.2888,-0.2882,-0.2884,-0.2841,-0.2831,-0.2815,-0.2809,-0.2755,-0.2745,-0.271,-0.2674,-0.2667,-0.268,-0.2652,-0.2591,-0.2591,-0.2591,-0.2673,-0.2679,-0.2684,0,0,0,0,0,-0.2916,-0.2941,-0.2927,-0.2925,-0.2898,-0.2885,-0.2879,-0.2843,-0.2816,-0.282,-0.2771,-0.2746,-0.2668,-0.2672,-0.2663,-0.2676,-0.2591,-0.2591,-0.2591,-0.2671,-0.2678,-0.2683,0,0,0,0,0,0,-0.2958,-0.2936,-0.2919,-0.2937,-0.2917,-0.2875,-0.2875,-0.2848,-0.2813,-0.2803,-0.2748,-0.2735,-0.2711,-0.268,-0.2685,-0.2654,-0.2625,-0.2624,-0.2689,-0.2695,-0.27,-0.271,-0.2649,0,0,0,0,0,-0.2974,-0.2981,-0.2954,-0.2966,-0.2958,-0.2916,-0.2906,-0.2884,-0.2847,-0.283,-0.2787,-0.274,-0.2706,-0.2689,-0.2653,-0.2642,-0.2594,-0.2642,-0.2647,-0.2652,-0.2653,-0.2609,-0.2611,-0.2591,-0.2591,-0.2591,0,0,-0.2988,-0.2981,-0.2982,-0.2975,-0.2951,-0.2948,-0.2907,-0.2899,-0.2895,-0.2826,-0.2802,-0.2758,-0.2705,-0.2686,-0.2674,-0.2662,-0.2626,-0.2652,-0.2657,-0.2654,-0.2609,-0.2611,-0.2613,-0.2591,-0.2591,-0.2591,0,0,-0.3001,-0.3017,-0.301,-0.3006,-0.2986,-0.2979,-0.298,-0.2941,-0.2922,-0.29,-0.2844,-0.2811,-0.2758,-0.2726,-0.2702,-0.2715,-0.2653,-0.27,-0.274,-0.2699,-0.2701,-0.2702,-0.262,-0.2613,-0.2706,-0.2707,-0.2707,0,-0.3011,-0.3009,-0.3008,-0.3003,-0.3007,-0.2995,-0.2993,-0.2986,-0.2941,-0.2917,-0.2904,-0.2809,-0.278,-0.2743,-0.2752,-0.2731,-0.2677,-0.2727,-0.2708,-0.2708,-0.2707,-0.2623,-0.2614,-0.2711,-0.271,-0.271,-0.2709,0,-0.3022,-0.3012,-0.3015,-0.301,-0.3026,-0.303,-0.3029,-0.3026,-0.3009,-0.2978,-0.2934,-0.2889,-0.2824,-0.2822,-0.2796,-0.2774,-0.2724,-0.272,-0.2699,-0.2715,-0.2624,-0.2613,-0.2717,-0.2715,-0.2714,-0.2713,0,0,-0.3033,-0.3019,-0.3019,-0.3002,-0.3033,-0.3039,-0.306,-0.3052,-0.3028,-0.301,-0.2961,-0.2938,-0.2894,-0.2864,-0.2826,-0.281,-0.2768,-0.2772,-0.2768,-0.2701,-0.2637,-0.2535,-0.2512,-0.276,-0.2759,-0.2759,-0.2567,0,-0.3022,-0.3024,-0.3029,-0.3029,-0.3022,-0.3041,-0.3053,-0.3055,-0.304,-0.2996,-0.2966,-0.2914,-0.2917,-0.2878,-0.2865,-0.278,-0.2747,-0.2818,-0.2622,-0.2615,-0.2532,-0.25,-0.2356,-0.2168,-0.2557,-0.2555,-0.2553,0,-0.302,-0.3016,-0.3019,-0.3006,-0.3007,-0.3022,-0.3039,-0.3039,-0.3006,-0.2986,-0.2948,-0.2902,-0.2862,-0.2869,-0.2755,-0.2795,-0.2725,-0.2676,-0.2667,-0.2536,-0.2493,-0.2217,-0.2133,-0.2535,-0.2536,-0.2538,-0.2539,0,-0.3027,-0.3007,-0.3015,-0.3019,-0.3015,-0.3014,-0.303,-0.3022,-0.2983,-0.2968,-0.2919,-0.288,-0.2809,-0.2764,-0.2665,-0.2702,-0.2522,-0.2552,-0.239,-0.238,-0.22,-0.2176,-0.2477,-0.2477,-0.2477,-0.2478,-0.2479,0,-0.3013,-0.2999,-0.3008,-0.3004,-0.2974,-0.3006,-0.2964,-0.2974,-0.2939,-0.2853,-0.2895,-0.2802,-0.2782,-0.2671,-0.2628,-0.2447,-0.2481,-0.2374,-0.2325,-0.2221,-0.2202,-0.2486,-0.249,-0.2471,-0.2472,-0.2474,-0.2475,0,-0.2957,-0.2988,-0.296,-0.2967,-0.2956,-0.2937,-0.2896,-0.285,-0.2866,-0.2753,-0.2742,-0.2696,-0.2563,-0.2512,-0.2389,-0.2343,-0.2231,-0.2164,-0.2024,-0.1963,-0.2125,-0.2135,-0.1959,-0.1954,-0.1949,-0.1946,-0.1943,0,-0.2913,-0.2901,-0.2906,-0.2881,-0.286,-0.2829,-0.2782,-0.2797,-0.2735,-0.2653,-0.2572,-0.2458,-0.2311,-0.2113,-0.2042,-0.1915,-0.2035,-0.1722,-0.1792,-0.2102,-0.2072,-0.2089,-0.2105,-0.1567,-0.1561,-0.1557,-0.1553,0,-0.2781,-0.2806,-0.278,-0.274,-0.2699,-0.2636,-0.2583,-0.2517,-0.2492,-0.2389,-0.2228,-0.2121,-0.1965,-0.1765,-0.1653,-0.1585,-0.1747,-0.1618,-0.1941,-0.1741,-0.1723,-0.1698,-0.1727,-0.151,-0.1514,-0.1517,-0.1519,-0.1521,-0.2665,-0.2619,-0.261,-0.2543,-0.2504,-0.2416,-0.2319,-0.2226,-0.2066,-0.1862,-0.1893,-0.1684,-0.1676,-0.1407,-0.1315,-0.1272,-0.1405,-0.1373,-0.1391,-0.1414,-0.1424,-0.1401,-0.1126,-0.1128,-0.113,-0.1131,-0.1132,0,-0.2473,-0.2459,-0.2407,-0.2332,-0.223,-0.2274,-0.2141,-0.1968,-0.1696,-0.157,-0.1398,-0.1209,-0.1081,-0.1093,-0.0959,-0.0939,-0.0979,-0.0905,-0.0972,-0.1013,-0.105,-0.1047,-0.0645,-0.0644,-0.0643,-0.0642,0,0,-0.2392,-0.2285,-0.2255,-0.2054,-0.2014,-0.1831,-0.1735,-0.1459,-0.1299,-0.0984,-0.0879,-0.0952,-0.1017,-0.0821,-0.0787,-0.0687,-0.0841,-0.0646,-0.1031,-0.1147,-0.1182,-0.1307,-0.1345,0,0,0,0,0]},{"header":{"parameterUnit":"m.s-1","parameterCategory":2,"la1":30.2991,"la2":30.254,"lo1":-89.0895,"lo2":-89.0444,"dy":0.0017,"dx":0.0017,"nx":28,"ny":28,"refTime":"2023-08-24T09:00:00:Z","depth":"2","parameterNumber":3,"parameterNumberName":"V-component_of_CURRENTS"},"data":[0,0,0,0,0,0,0,0,0,0,0,0,0,0,0,0,0,0,0,0,0,0,0,0,0,0,0,0,0,0,0,0,0,0,0,0,0,0,0,0,0,0,0,0,0,0,0,0,0,0,0,0,0,0,0,0,0,0,0.0458,0.0458,0,0.0522,0.0523,0.0524,0.0543,0.0542,0.0542,0.0542,0.062,0.0623,0.0625,0,0,0,0,0,0,0,0,0,0,0,0,0,0.0368,0.0369,0.0458,0.0458,0.0459,0.0522,0.0523,0.0524,0.0543,0.0542,0.0542,0.0541,0.0619,0.0622,0.0625,0,0,0,0,0,0,0,0,0,0,0,0,0,0.0418,0.037,0.0458,0.0475,0.0477,0.0522,0.0523,0.0524,0.0543,0.0542,0.0542,0.0541,0.0618,0.0622,0.0626,0.0663,0,0,0.0637,0.0639,0,0,0,0,0,0,0,0,0.0415,0.0422,0.0472,0.0474,0.0476,0.0523,0.052,0.0571,0.0543,0.052,0.0542,0.0541,0.0588,0.0595,0.061,0.0667,0.067,0.0638,0.064,0.0642,0.0643,0,0,0,0,0,0,0,0.0412,0.0419,0.0485,0.0472,0.0475,0.0485,0.0492,0.053,0.0559,0.0522,0.0523,0.0528,0.059,0.0606,0.0612,0.0672,0.0638,0.0641,0.0643,0.0645,0.0744,0.0744,0,0,0,0,0,0,0.0401,0.0416,0.0483,0.0487,0.0442,0.0487,0.0494,0.051,0.0558,0.0564,0.0528,0.0528,0.06,0.0608,0.0615,0.0637,0.0642,0.0645,0.0647,0.0744,0.0744,0.0745,0,0,0,0,0,0,0.0399,0.0407,0.048,0.0451,0.046,0.0489,0.0506,0.0511,0.0518,0.0563,0.0569,0.0529,0.06,0.061,0.0645,0.0641,0.0647,0.065,0.0743,0.0744,0.0744,0.0698,0,0,0,0,0,0,0.0397,0.0406,0.0406,0.045,0.0462,0.0501,0.0507,0.0513,0.0522,0.0523,0.0565,0.0572,0.06,0.0639,0.0649,0.0647,0.0653,0.0743,0.0744,0.0744,0.0699,0.0697,0.0695,0,0,0,0,0,0.0393,0.0394,0.0406,0.0413,0.0463,0.0501,0.0508,0.0527,0.0523,0.0529,0.0557,0.0571,0.065,0.0643,0.0654,0.0653,0.0742,0.0743,0.0744,0.07,0.0698,0.0695,0,0,0,0,0,0,0.035,0.0397,0.0411,0.0424,0.0458,0.0503,0.0504,0.0521,0.0549,0.0543,0.0581,0.0591,0.062,0.0647,0.0638,0.0684,0.0696,0.0699,0.0659,0.0657,0.0655,0.063,0.0656,0,0,0,0,0,0.0342,0.0355,0.0405,0.0412,0.0427,0.0465,0.0478,0.0496,0.0529,0.0539,0.0569,0.0602,0.0635,0.0652,0.0688,0.0717,0.0735,0.0723,0.0721,0.0719,0.0707,0.0747,0.0747,0.0747,0.0747,0.0747,0,0,0.0323,0.0352,0.0356,0.0403,0.0427,0.0447,0.0471,0.049,0.0503,0.0545,0.0563,0.0598,0.0642,0.0672,0.0687,0.0692,0.0726,0.072,0.0718,0.0707,0.0748,0.0748,0.0748,0.0748,0.0748,0.0748,0,0,0.028,0.0322,0.031,0.0341,0.0378,0.0422,0.0424,0.0471,0.0487,0.052,0.0548,0.0579,0.0631,0.0662,0.0684,0.0695,0.0715,0.0703,0.0673,0.0712,0.0712,0.0712,0.0721,0.0722,0.0701,0.0701,0.0701,0,0.0248,0.0252,0.0311,0.0311,0.0333,0.0406,0.0406,0.0444,0.0494,0.0502,0.0517,0.0586,0.0626,0.0659,0.0661,0.0689,0.0702,0.0676,0.0708,0.0708,0.0709,0.0718,0.072,0.0699,0.0699,0.07,0.07,0,0.0203,0.0202,0.0201,0.0236,0.0278,0.029,0.0363,0.039,0.0426,0.046,0.0495,0.0556,0.0588,0.0614,0.0641,0.0666,0.0669,0.07,0.0708,0.0706,0.0716,0.0719,0.0696,0.0697,0.0697,0.0698,0,0,0.0124,0.0159,0.0154,0.0154,0.0239,0.0268,0.0306,0.0358,0.0361,0.0424,0.0433,0.05,0.0523,0.055,0.0593,0.0634,0.0656,0.0661,0.0664,0.0658,0.0715,0.0667,0.0666,0.069,0.0691,0.0691,0.0714,0,0.0059,0.0039,0.009,0.0087,0.0089,0.018,0.0209,0.0271,0.0327,0.0361,0.0433,0.046,0.0504,0.0512,0.0561,0.0644,0.0663,0.0645,0.0728,0.0729,0.0678,0.0668,0.0661,0.0676,0.0717,0.0717,0.0718,0,-0.0011,-0.0012,-0.0033,0.0005,0.0016,0.0032,0.0103,0.0134,0.0214,0.0252,0.0303,0.0365,0.0434,0.0472,0.0585,0.057,0.0621,0.0684,0.0687,0.0658,0.0686,0.0689,0.068,0.0723,0.0723,0.0722,0.0722,0,-0.0095,-0.0094,-0.011,-0.0097,-0.0039,-0.0041,-0.0003,0.0076,0.0106,0.0172,0.0206,0.0293,0.0341,0.0434,0.0544,0.0569,0.0664,0.072,0.0715,0.0712,0.0729,0.0725,0.0771,0.0771,0.0771,0.0771,0.0771,0,-0.0178,-0.0199,-0.0168,-0.0184,-0.0209,-0.0133,-0.0143,-0.0096,-0.0019,0.0018,0.0124,0.0165,0.0336,0.0418,0.0517,0.0606,0.0633,0.0695,0.0714,0.071,0.0705,0.0771,0.077,0.0772,0.0772,0.0771,0.0771,0,-0.0276,-0.0256,-0.0285,-0.026,-0.026,-0.028,-0.0232,-0.0223,-0.0148,-0.0091,-0.0069,0.0078,0.0179,0.032,0.0472,0.0558,0.0656,0.0666,0.0627,0.0641,0.0689,0.0687,0.0696,0.0694,0.0693,0.0692,0.0691,0,-0.0328,-0.0356,-0.0358,-0.038,-0.0385,-0.0399,-0.0394,-0.0312,-0.0269,-0.015,-0.0113,-0.0013,0.0067,0.0249,0.0416,0.0556,0.0579,0.0609,0.0661,0.0663,0.0682,0.0681,0.068,0.0669,0.0668,0.0667,0.0666,0,-0.0429,-0.0427,-0.0444,-0.049,-0.0509,-0.0507,-0.0487,-0.0463,-0.0343,-0.0311,-0.0239,-0.0182,0.0026,0.0195,0.0374,0.0458,0.0597,0.0595,0.0624,0.0673,0.0635,0.0654,0.0655,0.0659,0.066,0.066,0.066,0.0661,-0.0497,-0.053,-0.0546,-0.0585,-0.0604,-0.0593,-0.0587,-0.0545,-0.0517,-0.0408,-0.0346,-0.0233,-0.0021,0.0242,0.0375,0.0519,0.0538,0.0601,0.0606,0.0611,0.0588,0.0548,0.055,0.055,0.055,0.055,0.055,0,-0.0559,-0.0585,-0.0631,-0.0654,-0.0671,-0.0667,-0.0617,-0.0592,-0.0583,-0.0469,-0.0417,-0.0215,-0.0012,0.0203,0.0442,0.0567,0.0597,0.0568,0.061,0.0616,0.0621,0.0601,0.0566,0.0566,0.0567,0.0567,0,0,-0.0589,-0.0635,-0.0645,-0.0692,-0.0717,-0.0708,-0.0681,-0.0672,-0.0578,-0.0516,-0.0404,-0.0242,0.0027,0.0193,0.0356,0.0481,0.0512,0.0477,0.0452,0.0488,0.0492,0.0624,0.0596,0,0,0,0,0]}],[{"header":{"parameterUnit":"m.s-1","parameterCategory":2,"la1":30.2991,"la2":30.254,"lo1":-89.0895,"lo2":-89.0444,"dy":0.0017,"dx":0.0017,"nx":28,"ny":28,"refTime":"2023-08-24T09:00:00:Z","depth":"4","parameterNumber":2,"parameterNumberName":"U-component_of_CURRENTS"},"data":[0,0,0,0,0,0,0,0,0,0,0,0,0,0,0,0,0,0,0,0,0,0,0,0,0,0,0,0,0,0,0,0,0,0,0,0,0,0,0,0,0,0,0,0,0,0,0,0,0,0,0,0,0,0,0,0,0,0,-0.1049,-0.1049,0,-0.1118,-0.112,-0.1121,-0.1195,-0.1195,-0.1196,-0.1197,-0.1281,-0.1283,-0.1285,0,0,0,0,0,0,0,0,0,0,0,0,0,-0.0932,-0.0934,-0.1049,-0.1049,-0.105,-0.1118,-0.112,-0.1121,-0.1195,-0.1195,-0.1196,-0.1197,-0.1281,-0.1283,-0.1285,0,0,0,0,0,0,0,0,0,0,0,0,0,-0.0995,-0.0935,-0.1049,-0.1091,-0.1095,-0.1118,-0.112,-0.1122,-0.1195,-0.1195,-0.1196,-0.1197,-0.128,-0.1283,-0.1285,-0.1284,0,0,-0.1293,-0.1294,0,0,0,0,0,0,0,0,-0.0991,-0.1,-0.1084,-0.1088,-0.1093,-0.1144,-0.1109,-0.1175,-0.1194,-0.1162,-0.1197,-0.1198,-0.1233,-0.124,-0.1258,-0.1288,-0.1291,-0.1293,-0.1295,-0.1296,-0.1297,0,0,0,0,0,0,0,-0.0987,-0.0997,-0.1082,-0.1085,-0.109,-0.1089,-0.11,-0.1122,-0.1196,-0.1165,-0.1169,-0.1169,-0.1236,-0.1255,-0.126,-0.1293,-0.1293,-0.1296,-0.1297,-0.1298,-0.1413,-0.1415,0,0,0,0,0,0,-0.097,-0.0993,-0.1079,-0.1083,-0.1037,-0.1091,-0.1103,-0.1131,-0.1196,-0.1205,-0.1168,-0.1172,-0.125,-0.1257,-0.1263,-0.1353,-0.1296,-0.1298,-0.13,-0.1412,-0.1414,-0.1415,0,0,0,0,0,0,-0.0968,-0.0978,-0.1076,-0.1034,-0.1046,-0.1092,-0.1122,-0.1132,-0.1164,-0.1197,-0.1207,-0.1191,-0.1251,-0.126,-0.1284,-0.1353,-0.13,-0.1302,-0.141,-0.1413,-0.1415,-0.1475,0,0,0,0,0,0,-0.0965,-0.0978,-0.1006,-0.1034,-0.1047,-0.109,-0.1121,-0.1132,-0.1159,-0.1165,-0.1219,-0.1228,-0.1253,-0.128,-0.1286,-0.1356,-0.1304,-0.1408,-0.1411,-0.1414,-0.1471,-0.1479,-0.1486,0,0,0,0,0,-0.0961,-0.1,-0.1008,-0.1018,-0.1081,-0.1089,-0.1097,-0.1135,-0.1159,-0.1169,-0.1202,-0.1227,-0.1304,-0.1281,-0.1289,-0.1362,-0.1407,-0.141,-0.1414,-0.1468,-0.1478,-0.1486,0,0,0,0,0,0,-0.0961,-0.1011,-0.1021,-0.1073,-0.1074,-0.11,-0.1131,-0.1137,-0.1173,-0.1194,-0.1223,-0.1233,-0.1302,-0.13,-0.1275,-0.1402,-0.1369,-0.1374,-0.1408,-0.1417,-0.1425,-0.1422,-0.1306,0,0,0,0,0,-0.0971,-0.1015,-0.1033,-0.1066,-0.1084,-0.1105,-0.1119,-0.1132,-0.1157,-0.1177,-0.1214,-0.1262,-0.132,-0.1338,-0.1386,-0.1422,-0.1397,-0.148,-0.1487,-0.1494,-0.1496,-0.1487,-0.1493,-0.1427,-0.1427,-0.1427,0,0,-0.0975,-0.1006,-0.1031,-0.1068,-0.1093,-0.1115,-0.112,-0.1144,-0.1163,-0.1178,-0.1242,-0.1293,-0.1337,-0.1408,-0.1438,-0.1412,-0.1499,-0.1498,-0.1503,-0.1502,-0.1491,-0.1497,-0.1502,-0.1429,-0.1428,-0.1428,0,0,-0.0993,-0.1042,-0.1083,-0.1099,-0.1124,-0.1131,-0.1134,-0.1167,-0.1196,-0.124,-0.1279,-0.1331,-0.142,-0.145,-0.1482,-0.1542,-0.155,-0.1598,-0.1622,-0.1613,-0.1618,-0.1622,-0.1593,-0.1594,-0.1587,-0.1587,-0.1587,0,-0.0999,-0.1049,-0.1085,-0.1123,-0.1145,-0.1139,-0.1169,-0.1188,-0.1217,-0.1256,-0.1273,-0.1424,-0.144,-0.1523,-0.1557,-0.156,-0.156,-0.1587,-0.1621,-0.1625,-0.1628,-0.1597,-0.1597,-0.1591,-0.159,-0.159,-0.159,0,-0.1027,-0.1082,-0.1109,-0.1161,-0.1186,-0.1203,-0.1229,-0.1252,-0.1295,-0.1335,-0.1444,-0.1473,-0.1563,-0.1591,-0.1599,-0.1658,-0.1653,-0.1641,-0.1595,-0.1638,-0.1603,-0.1602,-0.1595,-0.1594,-0.1593,-0.1592,0,0,-0.1019,-0.111,-0.1126,-0.116,-0.121,-0.1227,-0.1271,-0.1315,-0.1349,-0.143,-0.1483,-0.1606,-0.1653,-0.1686,-0.1707,-0.1691,-0.1697,-0.1688,-0.1686,-0.1652,-0.1686,-0.1587,-0.1576,-0.1713,-0.1713,-0.1713,-0.1651,0,-0.1028,-0.1085,-0.1148,-0.1208,-0.1237,-0.1281,-0.1312,-0.1361,-0.1415,-0.1456,-0.1529,-0.1613,-0.1681,-0.1725,-0.1735,-0.1699,-0.1701,-0.1715,-0.1655,-0.1653,-0.1554,-0.1573,-0.1715,-0.165,-0.1649,-0.1649,-0.1649,0,-0.104,-0.1072,-0.1129,-0.122,-0.1246,-0.1295,-0.1358,-0.1383,-0.1446,-0.1497,-0.1612,-0.1673,-0.1716,-0.1728,-0.1747,-0.177,-0.1754,-0.1715,-0.1711,-0.1596,-0.1552,-0.16,-0.1647,-0.1647,-0.1647,-0.1647,-0.1647,0,-0.0979,-0.1079,-0.1116,-0.1147,-0.1231,-0.1297,-0.1345,-0.1421,-0.1418,-0.1525,-0.1537,-0.1667,-0.1669,-0.1711,-0.1717,-0.1738,-0.1674,-0.1674,-0.1578,-0.157,-0.1651,-0.1647,-0.1681,-0.1681,-0.1681,-0.1682,-0.1682,0,-0.0959,-0.1006,-0.1102,-0.1129,-0.1165,-0.1274,-0.1327,-0.138,-0.1415,-0.1427,-0.1565,-0.1581,-0.1667,-0.1669,-0.1694,-0.1634,-0.168,-0.158,-0.1549,-0.1678,-0.1678,-0.1649,-0.1646,-0.1679,-0.168,-0.168,-0.1681,0,-0.0904,-0.0959,-0.1006,-0.1112,-0.1139,-0.1177,-0.1262,-0.1276,-0.1347,-0.134,-0.1373,-0.1467,-0.1518,-0.1572,-0.1574,-0.1555,-0.1525,-0.15,-0.1621,-0.1598,-0.143,-0.1431,-0.1365,-0.1361,-0.1358,-0.1355,-0.1353,0,-0.088,-0.0889,-0.0961,-0.0957,-0.1026,-0.1089,-0.1101,-0.1206,-0.1227,-0.1288,-0.1266,-0.1327,-0.1413,-0.1325,-0.1414,-0.143,-0.1438,-0.1397,-0.144,-0.1422,-0.1399,-0.1405,-0.1411,-0.1347,-0.1346,-0.1345,-0.1345,0,-0.0819,-0.0847,-0.0872,-0.0849,-0.0889,-0.0897,-0.0972,-0.0955,-0.1075,-0.1127,-0.1157,-0.1196,-0.1209,-0.1271,-0.1277,-0.1307,-0.1405,-0.1362,-0.137,-0.1409,-0.14,-0.1381,-0.1391,-0.1333,-0.1334,-0.1336,-0.1336,0,-0.0765,-0.0748,-0.0761,-0.0747,-0.0751,-0.0736,-0.0789,-0.0852,-0.0872,-0.0989,-0.1008,-0.1107,-0.1202,-0.1204,-0.1229,-0.1228,-0.1225,-0.1191,-0.1208,-0.1221,-0.121,-0.1179,-0.1009,0,0,0,0,0,-0.0696,-0.0672,-0.0645,-0.063,-0.0628,-0.0636,-0.0699,-0.0766,-0.0897,-0.0881,-0.0943,-0.0998,-0.1037,-0.1093,-0.1067,-0.1151,-0.1213,-0.1112,-0.1178,-0.1268,-0.1281,-0.1285,0,0,0,0,0,0,-0.0651,-0.0633,-0.062,-0.0541,-0.0502,-0.0501,-0.0542,-0.0621,-0.0651,-0.0785,-0.0825,-0.0916,-0.0981,-0.1035,-0.1038,-0.1051,-0.1067,-0.1178,-0.1174,-0.126,-0.1272,-0.1283,-0.1292,0,0,0,0,0]},{"header":{"parameterUnit":"m.s-1","parameterCategory":2,"la1":30.2991,"la2":30.254,"lo1":-89.0895,"lo2":-89.0444,"dy":0.0017,"dx":0.0017,"nx":28,"ny":28,"refTime":"2023-08-24T09:00:00:Z","depth":"4","parameterNumber":3,"parameterNumberName":"V-component_of_CURRENTS"},"data":[0,0,0,0,0,0,0,0,0,0,0,0,0,0,0,0,0,0,0,0,0,0,0,0,0,0,0,0,0,0,0,0,0,0,0,0,0,0,0,0,0,0,0,0,0,0,0,0,0,0,0,0,0,0,0,0,0,0,-0.0216,-0.0217,0,-0.0225,-0.0225,-0.0225,-0.0189,-0.0188,-0.0187,-0.0187,-0.0176,-0.0177,-0.0177,0,0,0,0,0,0,0,0,0,0,0,0,0,-0.0211,-0.021,-0.0216,-0.0217,-0.0217,-0.0225,-0.0225,-0.0225,-0.0189,-0.0188,-0.0187,-0.0186,-0.0176,-0.0177,-0.0177,0,0,0,0,0,0,0,0,0,0,0,0,0,-0.0212,-0.021,-0.0216,-0.0203,-0.0202,-0.0225,-0.0225,-0.0225,-0.0189,-0.0188,-0.0187,-0.0186,-0.0176,-0.0177,-0.0177,-0.0204,0,0,-0.0179,-0.018,0,0,0,0,0,0,0,0,-0.0212,-0.0212,-0.0204,-0.0204,-0.0203,-0.0208,-0.022,-0.0218,-0.0189,-0.019,-0.0187,-0.0185,-0.0188,-0.0188,-0.0187,-0.0203,-0.0203,-0.0179,-0.018,-0.018,-0.018,0,0,0,0,0,0,0,-0.0212,-0.0212,-0.0216,-0.0205,-0.0204,-0.0211,-0.0209,-0.0219,-0.0192,-0.019,-0.0188,-0.0195,-0.0187,-0.0187,-0.0187,-0.0203,-0.0179,-0.018,-0.018,-0.018,-0.0244,-0.0245,0,0,0,0,0,0,-0.0217,-0.0212,-0.0216,-0.0217,-0.0209,-0.0212,-0.021,-0.0204,-0.0193,-0.0191,-0.0196,-0.0194,-0.0186,-0.0186,-0.0186,-0.0221,-0.018,-0.0181,-0.0181,-0.0243,-0.0244,-0.0246,0,0,0,0,0,0,-0.0217,-0.0217,-0.0216,-0.0218,-0.0219,-0.0214,-0.0208,-0.0205,-0.0211,-0.0198,-0.0195,-0.0205,-0.0185,-0.0185,-0.0216,-0.022,-0.0181,-0.0181,-0.0241,-0.0243,-0.0245,-0.0287,0,0,0,0,0,0,-0.0216,-0.0216,-0.0222,-0.0218,-0.0219,-0.0247,-0.0209,-0.0206,-0.0218,-0.0215,-0.0205,-0.0202,-0.0184,-0.0215,-0.0217,-0.022,-0.0182,-0.0239,-0.0242,-0.0244,-0.0284,-0.029,-0.0295,0,0,0,0,0,-0.0216,-0.0225,-0.0221,-0.0223,-0.0223,-0.0249,-0.0251,-0.0241,-0.022,-0.0237,-0.0232,-0.0203,-0.023,-0.0218,-0.0219,-0.0222,-0.0238,-0.0241,-0.0244,-0.0281,-0.0289,-0.0295,0,0,0,0,0,0,-0.0226,-0.0223,-0.0218,-0.0226,-0.0247,-0.0245,-0.0254,-0.0252,-0.0261,-0.0249,-0.0232,-0.0231,-0.0254,-0.0244,-0.0231,-0.0249,-0.0225,-0.0228,-0.0252,-0.0259,-0.0265,-0.0267,-0.0182,0,0,0,0,0,-0.0233,-0.0235,-0.0245,-0.0254,-0.026,-0.026,-0.027,-0.0267,-0.0272,-0.0273,-0.0269,-0.0263,-0.0268,-0.027,-0.0274,-0.0295,-0.0262,-0.0295,-0.0301,-0.0305,-0.0309,-0.0283,-0.0286,-0.0255,-0.0255,-0.0255,0,0,-0.0243,-0.0239,-0.0243,-0.0258,-0.0259,-0.0282,-0.0261,-0.0278,-0.0302,-0.0273,-0.0298,-0.0289,-0.0282,-0.0299,-0.0307,-0.029,-0.0294,-0.0309,-0.0313,-0.0314,-0.0286,-0.0289,-0.0291,-0.0257,-0.0257,-0.0257,0,0,-0.0262,-0.0255,-0.0266,-0.0279,-0.0294,-0.0303,-0.0314,-0.0323,-0.033,-0.0363,-0.034,-0.0354,-0.0356,-0.0357,-0.0355,-0.0404,-0.033,-0.0382,-0.0407,-0.0381,-0.0383,-0.0384,-0.0327,-0.0323,-0.0379,-0.0379,-0.0379,0,-0.0277,-0.0284,-0.028,-0.0292,-0.0306,-0.0315,-0.0339,-0.0358,-0.0381,-0.0386,-0.0377,-0.0385,-0.0389,-0.0405,-0.0415,-0.0417,-0.0364,-0.0378,-0.0387,-0.0387,-0.0388,-0.0329,-0.0323,-0.0382,-0.0381,-0.0381,-0.0381,0,-0.0301,-0.0312,-0.0318,-0.0333,-0.0354,-0.0377,-0.04,-0.0428,-0.0433,-0.0435,-0.0456,-0.0467,-0.0464,-0.0465,-0.0454,-0.0455,-0.0402,-0.0399,-0.0364,-0.0393,-0.0329,-0.0323,-0.0385,-0.0384,-0.0384,-0.0383,0,0,-0.0317,-0.0334,-0.0334,-0.0353,-0.0375,-0.04,-0.0439,-0.0475,-0.0496,-0.0508,-0.0523,-0.0544,-0.0522,-0.0521,-0.0507,-0.0489,-0.0454,-0.0435,-0.0433,-0.0368,-0.0348,-0.0286,-0.0272,-0.0427,-0.0427,-0.0426,-0.0294,0,-0.0341,-0.0373,-0.0373,-0.0421,-0.0447,-0.046,-0.0508,-0.0535,-0.0543,-0.0562,-0.0558,-0.0566,-0.055,-0.0544,-0.0527,-0.0482,-0.0441,-0.0488,-0.0338,-0.0334,-0.0268,-0.0266,-0.0426,-0.0289,-0.0287,-0.0286,-0.0285,0,-0.0363,-0.0386,-0.0428,-0.0477,-0.0488,-0.0523,-0.0575,-0.0611,-0.0628,-0.0631,-0.0616,-0.0591,-0.0585,-0.0564,-0.0488,-0.0502,-0.0424,-0.038,-0.0374,-0.0299,-0.0261,-0.026,-0.0273,-0.0274,-0.0275,-0.0276,-0.0277,0,-0.0386,-0.0423,-0.0462,-0.0474,-0.0534,-0.0562,-0.0597,-0.0626,-0.0651,-0.0655,-0.0648,-0.0626,-0.0608,-0.0536,-0.043,-0.0448,-0.0309,-0.0335,-0.0198,-0.0191,-0.0267,-0.0267,-0.0257,-0.0257,-0.0258,-0.0258,-0.0258,0,-0.041,-0.0441,-0.0479,-0.0504,-0.057,-0.059,-0.064,-0.0677,-0.0696,-0.07,-0.0675,-0.0653,-0.0592,-0.0495,-0.0415,-0.0268,-0.0292,-0.0193,-0.0157,-0.0285,-0.029,-0.026,-0.0262,-0.0253,-0.0254,-0.0255,-0.0256,0,-0.0424,-0.0447,-0.05,-0.056,-0.0584,-0.0626,-0.067,-0.0698,-0.0717,-0.0717,-0.0712,-0.0659,-0.0531,-0.0427,-0.0292,-0.0238,-0.0121,-0.0047,-0.0151,-0.0124,-0.0025,-0.0031,0.0075,0.0078,0.0081,0.0083,0.0085,0,-0.0433,-0.0463,-0.0532,-0.0565,-0.0591,-0.0642,-0.0682,-0.0717,-0.0723,-0.0702,-0.0695,-0.0574,-0.051,-0.0269,-0.0178,0.0,0.0024,0.0078,-0.0026,-0.0017,0.0007,-0.0003,-0.0013,0.009,0.009,0.0091,0.0092,0,-0.0454,-0.0477,-0.0516,-0.0579,-0.0624,-0.0669,-0.0707,-0.0714,-0.0727,-0.0736,-0.0645,-0.053,-0.0366,-0.0225,-0.0052,0.006,0.0013,0.0105,0.0098,0.0001,0.0001,0.002,0.0008,0.0101,0.01,0.0099,0.0098,0,-0.046,-0.0487,-0.0532,-0.0584,-0.0642,-0.0679,-0.0699,-0.0684,-0.0691,-0.0662,-0.0612,-0.0465,-0.0384,-0.0186,-0.004,0.0089,0.0081,0.0066,0.0061,0.0052,-0.0008,-0.0015,0.012,0,0,0,0,0,-0.046,-0.0485,-0.0533,-0.0591,-0.0643,-0.0676,-0.0713,-0.0719,-0.0712,-0.0642,-0.063,-0.0469,-0.0257,-0.017,-0.0026,-0.0015,0.0091,0.0151,0.0068,0.0153,0.0142,0.008,0,0,0,0,0,0,-0.0463,-0.0502,-0.0523,-0.0577,-0.0614,-0.0669,-0.0693,-0.0693,-0.0645,-0.062,-0.0493,-0.0452,-0.0231,-0.0321,-0.0024,0.0012,-0.0029,0.0248,0.025,0.0159,0.0149,0.0141,0.0073,0,0,0,0,0]}]]